Location: Ravensburg
(47.7866°N, 9.6124°E)
Time: 10:07:56
(UTC+02:00)

YUBILEINY - Pass Details

Date: 22 March 2026
Orbit: 1477 x 1509 km, 82.5° (Epoch: 17 April)

Event Time Altitude Azimuth Distance (km) Brightness Sun altitude
Rises 02:00:32 0° 351° (N) 4,618 ? -37.7°
Reaches altitude 10° 02:03:36 10° 358° (N) 3,632 ? -37.4°
Maximum altitude 02:11:58 48° 71° (ENE) 1,865 ? -36.7°
Enters shadow 02:16:15 29° 127° (SE) 2,454 ? -36.3°
